[[{"header":{"parameterUnit":"m.s-1","parameterCategory":1,"la1":30.2991,"la2":30.254,"lo1":-89.0895,"lo2":-89.0444,"dy":0.0017,"dx":0.0017,"nx":28,"ny":28,"refTime":"2024-12-19T09:00:00:Z","depth":0,"parameterNumber":2,"parameterNumberName":"U-component_of_WINDS"},"data":[0,0,0,0,0,0,0,0,0,0,0,0,0,0,0,0,0,0,0,0,0,0,0,0,0,0,0,0,0,0,0,0,0,0,0,0,0,0,0,0,0,0,0,0,0,0,0,0,0,0,0,0,0,0,0,0,0,0,1.2109,1.2109,0,1.209,1.2089,1.2089,1.2067,1.2067,1.2066,1.2066,1.2045,1.2044,1.2044,0,0,0,0,0,0,0,0,0,0,0,0,0,1.2127,1.2127,1.2109,1.2109,1.2109,1.209,1.2089,1.2089,1.2067,1.2067,1.2066,1.2066,1.2045,1.2044,1.2044,0,0,0,0,0,0,0,0,0,0,0,0,0,1.2114,1.2127,1.2109,1.2095,1.2094,1.209,1.2089,1.2089,1.2067,1.2067,1.2066,1.2066,1.2045,1.2045,1.2044,1.2051,0,0,1.2043,1.2043,0,0,0,0,0,0,0,0,1.2115,1.2114,1.2098,1.2096,1.2095,1.208,1.2088,1.2076,1.2067,1.2077,1.2066,1.2066,1.2057,1.2055,1.2053,1.205,1.2049,1.2043,1.2043,1.2042,1.2042,0,0,0,0,0,0,0,1.2116,1.2115,1.2101,1.2097,1.2096,1.209,1.2088,1.2085,1.207,1.2076,1.2075,1.2073,1.2056,1.2053,1.2052,1.2049,1.2043,1.2042,1.2042,1.2042,1.2052,1.2052,0,0,0,0,0,0,1.2119,1.2115,1.2102,1.2101,1.2104,1.209,1.2088,1.2085,1.207,1.2067,1.2073,1.2072,1.2054,1.2053,1.2051,1.2059,1.2042,1.2042,1.2042,1.2051,1.2052,1.2052,0,0,0,0,0,0,1.212,1.2118,1.2103,1.2108,1.2105,1.209,1.2088,1.2085,1.2082,1.2068,1.2065,1.2073,1.2054,1.2052,1.2052,1.2058,1.2042,1.2041,1.2051,1.2052,1.2052,1.2074,0,0,0,0,0,0,1.212,1.2118,1.2121,1.2108,1.2105,1.2104,1.2088,1.2085,1.2082,1.208,1.2067,1.2064,1.2053,1.2052,1.2051,1.2057,1.2041,1.205,1.2051,1.2052,1.2072,1.2075,1.2078,0,0,0,0,0,1.2121,1.2127,1.2121,1.212,1.2108,1.2104,1.2102,1.209,1.2083,1.2085,1.2076,1.2065,1.2057,1.2053,1.2051,1.2057,1.205,1.2051,1.2052,1.2071,1.2075,1.2077,0,0,0,0,0,0,1.2141,1.2125,1.2118,1.2121,1.2114,1.21,1.2103,1.2094,1.2088,1.2087,1.2071,1.2068,1.207,1.2063,1.2058,1.2063,1.2052,1.2053,1.2067,1.207,1.2073,1.2074,1.2041,0,0,0,0,0,1.2146,1.2144,1.213,1.2134,1.2131,1.2118,1.2115,1.2107,1.2099,1.2095,1.2086,1.2078,1.2074,1.2072,1.2068,1.2072,1.2069,1.2075,1.2078,1.208,1.208,1.2083,1.2085,1.2056,1.2056,1.2056,0,0,1.2155,1.2146,1.2146,1.2138,1.2131,1.213,1.2115,1.2114,1.2113,1.2095,1.2094,1.2087,1.2078,1.208,1.2081,1.2075,1.2088,1.2081,1.2083,1.2082,1.2084,1.2087,1.2089,1.2057,1.2057,1.2057,0,0,1.2172,1.2165,1.2167,1.2162,1.2153,1.2144,1.2145,1.2133,1.2128,1.2127,1.2114,1.2112,1.2106,1.21,1.2096,1.2112,1.2102,1.2111,1.2124,1.2126,1.2129,1.2131,1.2136,1.2139,1.2112,1.2112,1.2112,0,1.2184,1.2182,1.217,1.217,1.2166,1.2151,1.2154,1.2149,1.2138,1.2136,1.213,1.2122,1.2115,1.2116,1.212,1.2117,1.2118,1.2112,1.2129,1.2131,1.2133,1.2138,1.214,1.2113,1.2113,1.2113,1.2113,0,1.2198,1.2197,1.22,1.2191,1.2188,1.2189,1.2177,1.2176,1.2168,1.216,1.216,1.2151,1.2145,1.2144,1.2136,1.2144,1.2141,1.2132,1.2121,1.2137,1.2142,1.2144,1.2115,1.2114,1.2114,1.2114,0,0,1.2225,1.2211,1.2212,1.2209,1.2198,1.2197,1.2198,1.2192,1.2191,1.2185,1.2186,1.2181,1.2174,1.2169,1.216,1.2162,1.2176,1.2154,1.2153,1.2158,1.2185,1.2192,1.2194,1.217,1.217,1.217,1.2186,0,1.224,1.2241,1.223,1.2234,1.2232,1.2219,1.222,1.2213,1.2206,1.2204,1.2196,1.2194,1.2184,1.2181,1.2183,1.2174,1.2181,1.2173,1.217,1.217,1.2172,1.2197,1.2203,1.2218,1.2188,1.2188,1.2188,0,1.2257,1.2252,1.2256,1.2246,1.2245,1.2246,1.2241,1.2239,1.2232,1.2227,1.2223,1.2213,1.2213,1.2203,1.2203,1.2198,1.2196,1.2192,1.2192,1.2191,1.218,1.2196,1.2222,1.2225,1.2191,1.2191,1.2191,0,1.2276,1.2271,1.2273,1.227,1.2259,1.226,1.2255,1.2248,1.2246,1.2241,1.224,1.2235,1.2232,1.2229,1.2218,1.2212,1.222,1.2209,1.2216,1.2216,1.2217,1.2217,1.2244,1.2217,1.2217,1.2217,1.2217,0,1.2293,1.2296,1.2282,1.2283,1.2286,1.2274,1.2277,1.2271,1.2265,1.2264,1.2253,1.2252,1.2239,1.2237,1.2229,1.223,1.2229,1.2225,1.2223,1.2226,1.2226,1.2224,1.2223,1.2217,1.2217,1.2217,1.2217,0,1.2315,1.2306,1.2307,1.2297,1.2294,1.2297,1.2288,1.2288,1.2281,1.2281,1.228,1.2269,1.2267,1.2256,1.2251,1.2246,1.225,1.2246,1.2252,1.2251,1.2258,1.2258,1.2284,1.2287,1.2259,1.2259,1.2259,0,1.2326,1.2328,1.2319,1.2318,1.2314,1.2313,1.2311,1.23,1.2298,1.2291,1.2292,1.2289,1.2286,1.2283,1.2274,1.2271,1.2266,1.2276,1.2265,1.2269,1.2266,1.2266,1.2266,1.2278,1.2278,1.2278,1.2278,0,1.2347,1.2343,1.2341,1.2337,1.2335,1.2332,1.2328,1.2328,1.2315,1.2314,1.2312,1.231,1.2306,1.2303,1.2298,1.2293,1.2284,1.2282,1.2283,1.2286,1.229,1.2288,1.2258,1.2281,1.2281,1.2281,1.2281,1.228,1.2364,1.2365,1.2359,1.2357,1.2353,1.235,1.235,1.2344,1.2342,1.2338,1.2331,1.233,1.2324,1.2317,1.2313,1.2312,1.2306,1.2308,1.2309,1.2309,1.2311,1.2291,1.2311,1.2311,1.2311,1.2311,1.231,0,1.2384,1.238,1.2379,1.2374,1.2372,1.2365,1.236,1.236,1.2359,1.2354,1.2352,1.235,1.2347,1.2339,1.2336,1.2336,1.2332,1.2336,1.2336,1.2335,1.2316,1.2315,1.2339,1.2339,1.2339,1.2339,1.2339,1.2339,1.2395,1.2397,1.2392,1.2392,1.2388,1.2387,1.2385,1.2382,1.2378,1.2377,1.2375,1.237,1.2364,1.236,1.2358,1.2355,1.2355,1.236,1.2356,1.2339,1.2336,1.2333,1.2332,1.236,1.236,1.2375,1.2375,1.2375]},{"header":{"parameterUnit":"m.s-1","parameterCategory":1,"la1":30.2991,"la2":30.254,"lo1":-89.0895,"lo2":-89.0444,"dy":0.0017,"dx":0.0017,"nx":28,"ny":28,"refTime":"2024-12-19T09:00:00:Z","depth":0,"parameterNumber":3,"parameterNumberName":"V-component_of_WINDS"},"data":[0,0,0,0,0,0,0,0,0,0,0,0,0,0,0,0,0,0,0,0,0,0,0,0,0,0,0,0,0,0,0,0,0,0,0,0,0,0,0,0,0,0,0,0,0,0,0,0,0,0,0,0,0,0,0,0,0,0,-8.0798,-8.08,0,-8.0967,-8.0969,-8.097,-8.0898,-8.0894,-8.089,-8.0886,-8.1051,-8.1059,-8.1067,0,0,0,0,0,0,0,0,0,0,0,0,0,-8.0407,-8.0414,-8.0798,-8.08,-8.0802,-8.0966,-8.0969,-8.0971,-8.0899,-8.0894,-8.0889,-8.0885,-8.1048,-8.1058,-8.1068,0,0,0,0,0,0,0,0,0,0,0,0,0,-8.0576,-8.0417,-8.0797,-8.0786,-8.0787,-8.0966,-8.0969,-8.0972,-8.09,-8.0894,-8.0888,-8.0882,-8.1045,-8.1057,-8.1069,-8.1267,0,0,-8.1107,-8.1112,0,0,0,0,0,0,0,0,-8.0567,-8.059,-8.0786,-8.0787,-8.0788,-8.0905,-8.0891,-8.107,-8.0902,-8.0857,-8.0886,-8.0879,-8.1007,-8.1022,-8.1067,-8.1274,-8.1281,-8.1108,-8.1115,-8.112,-8.1124,0,0,0,0,0,0,0,-8.0555,-8.0583,-8.0864,-8.0789,-8.079,-8.0771,-8.0788,-8.0925,-8.0964,-8.086,-8.0856,-8.0877,-8.1006,-8.1055,-8.107,-8.1284,-8.1107,-8.1118,-8.1126,-8.1131,-8.1663,-8.167,0,0,0,0,0,0,-8.0544,-8.0573,-8.0859,-8.0869,-8.0661,-8.0783,-8.0802,-8.0874,-8.0962,-8.097,-8.0882,-8.0873,-8.1037,-8.1056,-8.1076,-8.1314,-8.112,-8.1132,-8.1139,-8.1656,-8.1665,-8.1672,0,0,0,0,0,0,-8.0536,-8.057,-8.0852,-8.072,-8.0755,-8.0796,-8.0877,-8.088,-8.0929,-8.0979,-8.0984,-8.0925,-8.1033,-8.1058,-8.1221,-8.1318,-8.1137,-8.1148,-8.1648,-8.1659,-8.1668,-8.1791,0,0,0,0,0,0,-8.0525,-8.0568,-8.0645,-8.0723,-8.0762,-8.0997,-8.0883,-8.0888,-8.0951,-8.0941,-8.1021,-8.1028,-8.103,-8.1203,-8.1233,-8.1332,-8.1158,-8.164,-8.1653,-8.1665,-8.1779,-8.1804,-8.1826,0,0,0,0,0,-8.0511,-8.067,-8.0649,-8.0684,-8.086,-8.1003,-8.1025,-8.1027,-8.096,-8.1036,-8.1068,-8.1025,-8.1303,-8.122,-8.1253,-8.1358,-8.1634,-8.1649,-8.1664,-8.1768,-8.1799,-8.1826,0,0,0,0,0,0,-8.0599,-8.068,-8.0657,-8.0847,-8.0919,-8.099,-8.1087,-8.106,-8.115,-8.1136,-8.1133,-8.1151,-8.1319,-8.1354,-8.126,-8.1554,-8.1458,-8.148,-8.1525,-8.1556,-8.1579,-8.1567,-8.1168,0,0,0,0,0,-8.0641,-8.0753,-8.0817,-8.0978,-8.1015,-8.1046,-8.1108,-8.1104,-8.1177,-8.1206,-8.1249,-8.132,-8.1423,-8.1491,-8.1588,-8.1783,-8.1799,-8.1871,-8.1895,-8.1915,-8.1934,-8.2041,-8.2074,-8.1722,-8.1722,-8.1722,0,0,-8.0728,-8.0786,-8.0856,-8.0997,-8.1052,-8.1166,-8.1071,-8.1195,-8.128,-8.1223,-8.1381,-8.1416,-8.1494,-8.1674,-8.1755,-8.1708,-8.2035,-8.1934,-8.1949,-8.1958,-8.206,-8.2093,-8.2123,-8.1733,-8.1731,-8.1729,0,0,-8.0945,-8.1,-8.1142,-8.12,-8.1286,-8.1305,-8.1339,-8.1416,-8.1438,-8.1596,-8.1557,-8.1656,-8.1833,-8.1892,-8.1944,-8.2186,-8.215,-8.2218,-8.2342,-8.2446,-8.2474,-8.2499,-8.2585,-8.2617,-8.2237,-8.2237,-8.2237,0,-8.1041,-8.1214,-8.1216,-8.1346,-8.1409,-8.1367,-8.1509,-8.1564,-8.1677,-8.172,-8.1667,-8.1891,-8.194,-8.2134,-8.2193,-8.2237,-8.2275,-8.2208,-8.247,-8.2495,-8.2518,-8.2601,-8.2633,-8.2245,-8.2244,-8.2243,-8.2243,0,-8.1329,-8.1449,-8.1553,-8.1667,-8.1741,-8.1876,-8.1897,-8.1972,-8.1961,-8.1986,-8.2148,-8.2206,-8.2316,-8.2361,-8.2351,-8.2554,-8.2522,-8.247,-8.2373,-8.2559,-8.2637,-8.2669,-8.2256,-8.2253,-8.2251,-8.2249,0,0,-8.1604,-8.172,-8.1758,-8.181,-8.1903,-8.1995,-8.2128,-8.2239,-8.2303,-8.2382,-8.2493,-8.2645,-8.2598,-8.2658,-8.2654,-8.2745,-8.2934,-8.2682,-8.2683,-8.2727,-8.3163,-8.3202,-8.3239,-8.2911,-8.2917,-8.2922,-8.3156,0,-8.1829,-8.2065,-8.2072,-8.2287,-8.2399,-8.2362,-8.2477,-8.2546,-8.2572,-8.2669,-8.2697,-8.2806,-8.2735,-8.2772,-8.286,-8.2893,-8.3022,-8.2876,-8.3013,-8.3017,-8.2995,-8.3279,-8.3321,-8.3539,-8.3186,-8.3192,-8.3195,0,-8.2122,-8.2215,-8.2443,-8.2522,-8.2569,-8.2673,-8.2776,-8.2869,-8.2946,-8.2959,-8.3028,-8.3011,-8.3145,-8.3044,-8.3228,-8.3129,-8.3185,-8.3209,-8.3218,-8.3231,-8.3118,-8.33,-8.3609,-8.3642,-8.3243,-8.3239,-8.3236,0,-8.2302,-8.2483,-8.2644,-8.2689,-8.2785,-8.2859,-8.2902,-8.2973,-8.304,-8.3129,-8.3172,-8.3274,-8.3329,-8.3408,-8.3418,-8.3344,-8.3604,-8.3503,-8.3617,-8.3617,-8.3673,-8.367,-8.3996,-8.3709,-8.3708,-8.3708,-8.3707,0,-8.2552,-8.2693,-8.2726,-8.2825,-8.2981,-8.2987,-8.3141,-8.3177,-8.3242,-8.3345,-8.3317,-8.3415,-8.3422,-8.3522,-8.353,-8.3682,-8.3707,-8.372,-8.3721,-8.3723,-8.3722,-8.376,-8.3745,-8.3717,-8.3715,-8.3713,-8.3711,0,-8.2779,-8.2807,-8.2979,-8.3058,-8.3081,-8.3193,-8.3258,-8.3352,-8.3376,-8.3508,-8.3539,-8.3577,-8.3693,-8.3712,-8.3846,-8.3852,-8.4034,-8.4018,-8.4009,-8.4007,-8.412,-8.411,-8.4483,-8.4532,-8.4213,-8.4216,-8.4218,0,-8.2938,-8.3046,-8.3137,-8.3206,-8.3254,-8.3365,-8.3434,-8.3444,-8.3516,-8.3614,-8.3695,-8.3809,-8.3901,-8.4088,-8.4126,-8.4229,-8.4216,-8.434,-8.4231,-8.4231,-8.4219,-8.4213,-8.4224,-8.436,-8.4364,-8.4367,-8.4369,0,-8.3216,-8.3225,-8.3327,-8.3436,-8.352,-8.3604,-8.3684,-8.3741,-8.3761,-8.3844,-8.3964,-8.4036,-8.4176,-8.4289,-8.4392,-8.4433,-8.4405,-8.4403,-8.4435,-8.4439,-8.443,-8.4437,-8.4067,-8.4394,-8.4392,-8.439,-8.4389,-8.4388,-8.3414,-8.3509,-8.3589,-8.3704,-8.3766,-8.3842,-8.3935,-8.3973,-8.4074,-8.4191,-8.419,-8.4322,-8.4396,-8.4533,-8.4581,-8.4683,-8.4643,-8.4689,-8.47,-8.4712,-8.4724,-8.4414,-8.4702,-8.4701,-8.47,-8.47,-8.4699,0,-8.3691,-8.3742,-8.3848,-8.3963,-8.4053,-8.4022,-8.4109,-8.4186,-8.4304,-8.4377,-8.447,-8.4608,-8.4718,-8.4766,-8.4874,-8.4947,-8.4936,-8.4975,-8.4969,-8.498,-8.4753,-8.4715,-8.4981,-8.4981,-8.4981,-8.4981,-8.4981,-8.4981,-8.3847,-8.4007,-8.4026,-8.4216,-8.4264,-8.4396,-8.4449,-8.4518,-8.4577,-8.4735,-8.4828,-8.486,-8.4923,-8.5035,-8.5135,-8.5146,-8.5187,-8.5232,-8.5237,-8.5024,-8.4995,-8.4968,-8.4933,-8.524,-8.5241,-8.5455,-8.5457,-8.5458]}]]